Owatonna, MN

11:37 AM CDT on June 27, 2017 (GMT -0500)
Owatonna Degner Regional

Weather History for KOWA - December, 2012

Change the Weather History Date:

Wednesday, December 26, 2012

  Actual Average Record
Temperature  
Mean Temperature 10 °F -  
Max Temperature 19 °F 23 °F 48 °F (2011)
Min Temperature 1 °F 4 °F -18 °F (1990)
Degree Days  
Heating Degree Days 55    
Moisture  
Dew Point 0 °F    
Average Humidity 63    
Maximum Humidity 72    
Minimum Humidity 49    
Precipitation  
Precipitation 0.00 in - - ()
Sea Level Pressure  
Sea Level Pressure 30.25 in    
Wind  
Wind Speed 4 mph (North)    
Max Wind Speed 8 mph    
Max Gust Speed -    
Visibility 10 miles    
Events      
Averages and records for this station are not official NWS values.
T = Trace of Precipitation, MM = Missing Value Source: NWS Daily Summary

Daily Weather History Graph

Daily Weather History Graph

Search for Another Location

Airport or City:

Trip Planner

Search our weather history database for the weather conditions in past years. The results will help you decide how hot, cold, wet, or windy it might be!

Date:

Astronomy

Dec. 26, 2012 Rise Set
Actual Time 7:47 AM CST 4:40 PM CST
Civil Twilight 7:14 AM CST 5:13 PM CST
Nautical Twilight 6:37 AM CST 5:50 PM CST
Astronomical Twilight 6:02 AM CST 6:25 PM CST
Moon 3:35 PM CST (12/26) 6:10 AM CST (12/26)
Length of Visible Light 9h 59m
Length of Day
8h 53m
Waxing Gibbous, 97% of the Moon is Illuminated
Dec 26
Waxing Gibbous
Dec 28
Full
Jan 4
Last Quarter
Jan 11
New
Jan 18
First Quarter

Hourly Weather History & Observations

Time (CST) Temp. Windchill Dew Point Humidity Pressure Visibility Wind Dir Wind Speed Gust Speed Precip Events Conditions
12:14 AM 1.4 °F -6.2 °F -5.8 °F 72% 30.34 in 10.0 mi NNW 3.5 mph - N/A   Clear
12:34 AM 3.2 °F -7.8 °F -5.8 °F 66% 30.34 in 10.0 mi NNW 5.8 mph - N/A   Clear
12:54 AM 5.0 °F -2.1 °F -4.0 °F 66% 30.34 in 10.0 mi NNW 3.5 mph - N/A   Clear
1:13 AM 6.8 °F -0.1 °F -2.2 °F 67% 30.34 in 10.0 mi North 3.5 mph - N/A   Clear
1:33 AM 6.8 °F -3.5 °F -2.2 °F 67% 30.34 in 10.0 mi North 5.8 mph - N/A   Clear
1:54 AM 6.8 °F -0.1 °F -2.2 °F 67% 30.34 in 10.0 mi NNE 3.5 mph - N/A   Clear
2:14 AM 6.8 °F -2.0 °F -2.2 °F 67% 30.33 in 10.0 mi NNE 4.6 mph - N/A   Clear
2:34 AM 6.8 °F -0.1 °F -2.2 °F 67% 30.34 in 10.0 mi North 3.5 mph - N/A   Clear
2:54 AM 6.8 °F -2.0 °F -2.2 °F 67% 30.33 in 10.0 mi North 4.6 mph - N/A   Clear
3:14 AM 6.8 °F -2.0 °F -2.2 °F 67% 30.33 in 10.0 mi North 4.6 mph - N/A   Clear
3:33 AM 6.8 °F - -2.2 °F 67% 30.33 in 10.0 mi Calm Calm - N/A   Clear
3:54 AM 6.8 °F -0.1 °F -2.2 °F 67% 30.32 in 10.0 mi North 3.5 mph - N/A   Clear
4:14 AM 6.8 °F -0.1 °F -2.2 °F 67% 30.31 in 10.0 mi North 3.5 mph - N/A   Clear
4:34 AM 8.6 °F 0.1 °F -2.2 °F 62% 30.31 in 10.0 mi North 4.6 mph - N/A   Clear
4:54 AM 8.6 °F 2.0 °F -2.2 °F 62% 30.30 in 10.0 mi North 3.5 mph - N/A   Clear
5:14 AM 8.6 °F 0.1 °F -0.4 °F 67% 30.29 in 10.0 mi North 4.6 mph - N/A   Clear
5:34 AM 8.6 °F 2.0 °F -0.4 °F 67% 30.28 in 10.0 mi North 3.5 mph - N/A   Clear
5:54 AM 6.8 °F -0.1 °F -2.2 °F 67% 30.28 in 10.0 mi North 3.5 mph - N/A   Clear
6:14 AM 6.8 °F -2.0 °F -2.2 °F 67% 30.28 in 10.0 mi NNW 4.6 mph - N/A   Clear
6:34 AM 6.8 °F -3.5 °F -0.4 °F 72% 30.27 in 10.0 mi North 5.8 mph - N/A   Clear
6:54 AM 6.8 °F -2.0 °F -0.4 °F 72% 30.27 in 10.0 mi North 4.6 mph - N/A   Scattered Clouds
7:14 AM 6.8 °F -2.0 °F -2.2 °F 67% 30.27 in 10.0 mi NNW 4.6 mph - N/A   Clear
7:33 AM 6.8 °F -0.1 °F -2.2 °F 67% 30.27 in 10.0 mi North 3.5 mph - N/A   Clear
7:53 AM 6.8 °F -0.1 °F -2.2 °F 67% 30.26 in 10.0 mi North 3.5 mph - N/A   Clear
8:14 AM 6.8 °F -0.1 °F -2.2 °F 67% 30.26 in 10.0 mi North 3.5 mph - N/A   Clear
8:34 AM 6.8 °F -0.1 °F -0.4 °F 72% 30.26 in 10.0 mi NNW 3.5 mph - N/A   Clear
8:54 AM 8.6 °F 2.0 °F -0.4 °F 67% 30.26 in 10.0 mi North 3.5 mph - N/A   Clear
9:14 AM 8.6 °F -3.7 °F -0.4 °F 67% 30.26 in 10.0 mi NNW 8.1 mph - N/A   Clear
9:33 AM 8.6 °F -2.6 °F -0.4 °F 67% 30.27 in 10.0 mi North 6.9 mph - N/A   Clear
9:53 AM 10.4 °F -0.4 °F -0.4 °F 62% 30.28 in 10.0 mi North 6.9 mph - N/A   Clear
10:13 AM 10.4 °F 2.2 °F -0.4 °F 62% 30.27 in 10.0 mi North 4.6 mph - N/A   Clear
10:34 AM 10.4 °F 4.0 °F -0.4 °F 62% 30.27 in 10.0 mi North 3.5 mph - N/A   Clear
10:54 AM 12.2 °F 6.1 °F 1.4 °F 62% 30.27 in 10.0 mi North 3.5 mph - N/A   Clear
11:14 AM 12.2 °F - 1.4 °F 62% 30.26 in 10.0 mi Calm Calm - N/A   Clear
11:33 AM 14.0 °F 6.5 °F 1.4 °F 57% 30.26 in 10.0 mi North 4.6 mph - N/A   Clear
11:54 AM 15.8 °F 10.2 °F 1.4 °F 53% 30.25 in 10.0 mi NNW 3.5 mph - N/A   Clear
12:13 PM 15.8 °F 10.2 °F 3.2 °F 58% 30.25 in 10.0 mi NNE 3.5 mph - N/A   Clear
12:34 PM 17.6 °F 9.3 °F 3.2 °F 53% 30.24 in 10.0 mi NNE 5.8 mph - N/A   Clear
12:54 PM 17.6 °F 9.3 °F 3.2 °F 53% 30.23 in 10.0 mi NNE 5.8 mph - N/A   Clear
1:14 PM 17.6 °F 8.2 °F 3.2 °F 53% 30.22 in 10.0 mi North 6.9 mph - N/A   Clear
1:34 PM 19.4 °F 10.4 °F 3.2 °F 49% 30.22 in 10.0 mi NNE 6.9 mph - N/A   Clear
1:54 PM 19.4 °F 11.5 °F 3.2 °F 49% 30.22 in 10.0 mi NNE 5.8 mph - N/A   Clear
2:14 PM 19.4 °F 10.4 °F 5.0 °F 54% 30.21 in 10.0 mi NNE 6.9 mph - N/A   Clear
2:34 PM 19.4 °F 11.5 °F 3.2 °F 49% 30.21 in 10.0 mi NNE 5.8 mph - N/A   Clear
2:54 PM 19.4 °F 11.5 °F 3.2 °F 49% 30.21 in 10.0 mi North 5.8 mph - N/A   Clear
3:13 PM 19.4 °F 11.5 °F 5.0 °F 54% 30.22 in 10.0 mi NNE 5.8 mph - N/A   Clear
3:33 PM 19.4 °F 10.4 °F 3.2 °F 49% 30.22 in 10.0 mi NNE 6.9 mph - N/A   Clear
3:53 PM 17.6 °F 8.2 °F 3.2 °F 53% 30.21 in 10.0 mi NNE 6.9 mph - N/A   Clear
4:14 PM 17.6 °F 12.3 °F 3.2 °F 53% 30.21 in 10.0 mi NNE 3.5 mph - N/A   Clear
4:34 PM 15.8 °F - 3.2 °F 58% 30.21 in 10.0 mi Calm Calm - N/A   Clear
4:54 PM 15.8 °F 8.6 °F 3.2 °F 58% 30.21 in 10.0 mi NE 4.6 mph - N/A   Clear
5:14 PM 15.8 °F - 3.2 °F 58% 30.21 in 10.0 mi Calm Calm - N/A   Clear
5:33 PM 12.2 °F - 1.4 °F 62% 30.21 in 10.0 mi Calm Calm - N/A   Clear
5:54 PM 10.4 °F - 1.4 °F 67% 30.21 in 10.0 mi Calm Calm - N/A   Clear
6:14 PM 6.8 °F -0.1 °F -0.4 °F 72% 30.22 in 10.0 mi WNW 3.5 mph - N/A   Clear
6:54 PM 10.4 °F - 1.4 °F 67% 30.22 in 10.0 mi Calm Calm - N/A   Clear
7:14 PM 10.4 °F - 1.4 °F 67% 30.22 in 10.0 mi Calm Calm - N/A   Clear
7:34 PM 10.4 °F - -0.4 °F 62% 30.22 in 10.0 mi Calm Calm - N/A   Clear
7:53 PM 10.4 °F - -0.4 °F 62% 30.22 in 10.0 mi Calm Calm - N/A   Clear
8:14 PM 8.6 °F - -0.4 °F 67% 30.22 in 10.0 mi Calm Calm - N/A   Clear
8:33 PM 10.4 °F - 1.4 °F 67% 30.22 in 10.0 mi Calm Calm - N/A   Clear
8:53 PM 8.6 °F - -0.4 °F 67% 30.21 in 10.0 mi Calm Calm - N/A   Clear
9:14 PM 10.4 °F - 1.4 °F 67% 30.21 in 10.0 mi Calm Calm - N/A   Mostly Cloudy
9:34 PM 10.4 °F - -0.4 °F 62% 30.21 in 10.0 mi Calm Calm - N/A   Overcast
9:54 PM 10.4 °F - -0.4 °F 62% 30.20 in 10.0 mi Calm Calm - N/A   Overcast
10:13 PM 10.4 °F - 1.4 °F 67% 30.20 in 10.0 mi Calm Calm - N/A   Scattered Clouds
10:34 PM 10.4 °F - -0.4 °F 62% 30.20 in 10.0 mi Calm Calm - N/A   Clear
10:54 PM 10.4 °F 4.0 °F -0.4 °F 62% 30.19 in 10.0 mi ENE 3.5 mph - N/A   Clear
11:14 PM 10.4 °F 4.0 °F -0.4 °F 62% 30.19 in 10.0 mi East 3.5 mph - N/A   Clear
11:34 PM 8.6 °F - -0.4 °F 67% 30.19 in 10.0 mi Calm Calm - N/A   Clear
11:53 PM 10.4 °F - 1.4 °F 67% 30.20 in 10.0 mi Calm Calm - N/A   Clear